Location: Meanaryar
(48.4161°N, 4.7315°W)
Time: 10:42:18
(UTC+00:00)

Cosmos 1766 - Pass Details

Date: 18 September 2020
Orbit: 522 x 544 km, 82.5° (Epoch: 24 October)

Event Time Altitude Azimuth Distance (km) Brightness Sun altitude
Exits shadow 21:09:27 40° 347° (NNW) 799 4.4 -26.3°
Drops below altitude 10° 21:12:09 10° 4° (N) 1,802 6.3 -26.7°
Sets 21:14:21 0° 8° (N) 2,703 7.2 -27.0°
